User: anonymous   Login
Location: Kosice
(0.0000°N, 21.2500°E)
Time: 22:54:34
(UTC+02:00)
Language:

Cosmos 2058 - Orbit

View from above orbital plane
View from above orbital plane
View from above satellite
View from above satellite

Ground track
Ground track

The orbit data is extracted from the following two-line orbital elements,

1 20465U 90010A   21110.56574176  .00000455  00000-0  36078-4 0  9995
2 20465  82.4893 337.7976 0013958 243.5287 116.4505 14.98185535674303
Epoch (UTC): 20 April 2021 13:34:40
Eccentricity: 0.0013958
inclination: 82.4893°
perigee height: 563 km
apogee height: 582 km
right ascension of ascending node: 337.7976°
argument of perigee: 243.5287°
revolutions per day: 14.98185535
mean anomaly at epoch: 116.4505°
orbit number at epoch: 67430

The dashed part of the orbit path shows where the satellite is in the earth's shadow,  

DLR